Temp
10 10 10 10 11 11 12 12 12 12 11 11 11 11 11 10 11 11 11 10 9 9
8 9 9 9 10 10 11 11 11 11 11 11 10 10 9 9 9 10 10 10 10 9
7 7 8 8 9 10 10 10 10 11 11 9 9 9 9 9 9 8 9 9 9 9
6 7 7 6 7 9 10 10 11 11 10 10 9 7 8 8 8 8 7 8 8 8
7 7 7 7 8 8 8 8 9 9 10 9 7 7 7 7 8 7 7 7 7 6
6 6 7 7 7 7 7 6 6 6 7 7 6 6 6 6 6 6 8 6 6 6
5 6 6 6 6 5 5 4 3 3 4 4 4 5 4 5 5 5 6 6 7 5
4 4 5 5 4 4 5 6 5 4 3 3 2 3 3 3 4 4 4 4 3 1
2 3 3 3 2 3 4 4 4 4 3 3 2 2 2 2 2 2 1 1 0 -0
2 3 2 2 2 2 3 2 1 1 1 1 0 -0 -0 0 1 0 -0 -1 -1 -1
1 1 1 1 1 1 0 0 0 -0 -0 -0 -1 -1 -0 0 -0 -0 -1 -1 -1 -1
1 1 1 1 0 0 -0 -0 -0 -1 -1 -0 -1 -1 -1 -1 -1 -1 -2 -2 -2 -2
0 0 0 0 -0 -1 -1 -0 -1 -1 -1 -1 -1 -2 -1 -1 -1 -2 -2 -2 -3 -4
0 0 -0 -0 -1 -1 -1 -1 -0 -0 -0 -0 -0 -1 -1 -2 -3 -3 -4 -4 -4 -4
Height
1486 1486 1485 1484 1484 1485 1486 1487 1488 1486 1486 1485 1485 1484 1485 1485 1486 1487 1487 1487 1486 1486
1482 1481 1480 1479 1479 1479 1480 1479 1479 1480 1479 1479 1480 1478 1478 1478 1478 1479 1480 1480 1481 1480
1478 1477 1476 1476 1474 1474 1474 1475 1474 1475 1474 1473 1473 1474 1473 1472 1472 1473 1473 1473 1474 1475
1474 1474 1473 1472 1471 1471 1470 1469 1469 1468 1467 1467 1466 1467 1468 1467 1467 1467 1468 1468 1468 1468
1471 1471 1470 1469 1468 1467 1466 1465 1463 1462 1461 1459 1459 1460 1462 1463 1463 1463 1462 1461 1460 1462
1469 1468 1467 1466 1465 1465 1463 1460 1459 1457 1456 1456 1456 1456 1457 1457 1458 1459 1455 1455 1455 1455
1466 1465 1464 1464 1462 1462 1459 1457 1455 1453 1453 1452 1452 1451 1452 1452 1452 1452 1451 1450 1450 1449
1465 1463 1462 1461 1460 1458 1455 1454 1454 1452 1451 1450 1451 1449 1449 1449 1447 1448 1446 1446 1447 1447
1463 1462 1460 1459 1458 1456 1453 1451 1451 1450 1450 1449 1449 1449 1447 1446 1445 1444 1445 1446 1449 1449
1462 1461 1459 1458 1457 1455 1451 1452 1452 1451 1451 1450 1450 1450 1449 1448 1446 1446 1447 1449 1451 1450
1460 1459 1458 1458 1457 1455 1455 1455 1454 1454 1453 1453 1453 1453 1452 1449 1449 1450 1451 1452 1452 1452
1460 1460 1460 1460 1459 1459 1459 1458 1457 1456 1457 1456 1455 1454 1454 1453 1452 1452 1452 1453 1454 1454
1462 1462 1462 1462 1462 1462 1462 1460 1459 1460 1459 1458 1458 1457 1456 1456 1455 1455 1454 1454 1454 1454
1464 1464 1465 1465 1465 1465 1463 1462 1462 1462 1461 1461 1460 1459 1458 1457 1456 1455 1454 1453 1453 1452
Wind_Speed
14 13 13 14 14 18 25 22 19 20 25 27 26 29 31 34 39 42 42 45 49 49
10 12 14 17 16 17 17 21 23 25 22 22 19 22 24 27 31 35 36 43 41 46
6 8 9 9 11 14 16 17 19 21 24 22 22 22 21 21 24 26 30 34 38 39
7 7 6 7 12 14 14 15 17 18 20 24 26 24 21 20 21 21 24 26 30 33
7 7 8 11 14 15 16 17 19 19 19 18 18 18 19 20 18 16 17 20 21 27
9 10 10 11 13 15 16 17 17 17 18 16 14 15 16 13 13 15 16 16 18 20
9 8 8 8 10 10 11 13 13 13 10 10 10 8 11 14 16 15 17 19 21 20
8 8 8 7 6 8 8 9 12 13 13 10 12 12 12 12 12 14 14 13 12 8
8 6 6 6 5 5 6 7 7 6 6 6 7 8 7 6 6 4 2 0 2 5
6 6 4 5 4 5 7 9 9 9 8 7 10 11 11 10 9 8 6 4 2 2
2 3 5 5 7 10 12 13 13 12 11 11 12 10 10 10 9 6 4 2 0 2
6 7 8 10 13 14 13 14 14 15 12 11 12 11 10 8 5 4 3 2 4 4
12 12 13 14 14 13 12 13 13 11 10 10 8 7 7 6 4 4 2 2 3 4
14 14 14 13 12 11 10 10 10 9 9 7 8 7 7 7 7 6 7 8 10 11
Wind_Direction
279 282 280 274 267 258 255 255 260 274 274 270 272 270 261 256 257 260 261 258 253 254
267 260 263 268 266 264 259 253 253 254 271 276 275 277 271 265 260 260 264 262 264 259
282 286 289 292 284 270 266 265 263 263 261 263 267 270 275 267 265 266 266 267 267 269
290 281 283 276 281 290 287 281 279 275 269 262 263 270 269 269 269 265 266 269 269 271
296 295 278 274 282 286 288 290 289 288 287 283 277 271 268 271 274 276 273 274 275 274
292 292 296 304 306 301 297 295 294 291 289 288 280 273 269 265 269 278 295 277 275 269
298 302 306 320 323 316 320 327 327 318 308 302 292 278 276 277 278 274 285 282 279 265
314 315 315 314 320 324 331 335 329 326 315 308 301 290 285 287 284 276 272 274 269 241
337 340 348 350 331 339 349 352 349 344 345 342 332 339 343 337 316 322 330 358 207 190
328 340 3 4 8 29 38 42 48 50 45 51 58 56 59 62 66 73 84 102 143 160
32 60 72 70 73 66 67 73 75 75 77 77 74 65 61 54 51 54 62 56 251 267
88 90 90 90 83 82 82 80 75 73 69 62 67 58 55 56 56 36 20 323 280 287
102 102 101 96 94 89 83 76 73 73 70 67 57 48 37 42 45 41 17 337 337 313
109 107 103 99 94 89 80 71 68 65 63 57 45 35 22 14 7 348 333 319 311 309